Hilo, HI

1:33 PM HST on September 26, 2016 (GMT -1000)
Hilo International

Weather History for PHTO - April, 2013

Change the Weather History Date:

Monday, April 29, 2013

  Actual Average Record
Temperature  
Mean Temperature 72 °F 73 °F  
Max Temperature 75 °F 79 °F 86 °F (1954)
Min Temperature 69 °F 66 °F 63 °F (1952)
Degree Days  
Heating Degree Days 0 0  
Month to date heating degree days 0 0  
Since 1 July heating degree days 0 0  
Cooling Degree Days 7 8  
Month to date cooling degree days 250 206  
Year to date cooling degree days 824 787  
Growing Degree Days 21 (Base 50)    
Moisture  
Dew Point 68 °F    
Average Humidity 88    
Maximum Humidity 93    
Minimum Humidity 82    
Precipitation  
Precipitation 0.62 in 0.32 in 5.11 in (1989)
Month to date precipitation 2.97 11.22  
Year to date precipitation 38.61 43.47  
Snow  
Snow 0.00 in - - ()
Month to date snowfall 0.0  
Since 1 July snowfall 0.0  
Snow Depth 0.00 in    
Sea Level Pressure  
Sea Level Pressure 30.00 in    
Wind  
Wind Speed 5 mph (SW)    
Max Wind Speed 13 mph    
Max Gust Speed 17 mph    
Visibility 8 miles    
Events Rain    
T = Trace of Precipitation, MM = Missing Value Source: NWS Daily Summary

Daily Weather History Graph

Daily Weather History Graph

Search for Another Location

Airport or City:

Trip Planner

Search our weather history database for the weather conditions in past years. The results will help you decide how hot, cold, wet, or windy it might be!

Date:

Astronomy

Apr. 29, 2013 Rise Set
Actual Time 5:52 AM HST 6:42 PM HST
Civil Twilight 5:29 AM HST 7:05 PM HST
Nautical Twilight 5:02 AM HST 7:32 PM HST
Astronomical Twilight 4:34 AM HST 8:00 PM HST
Moon 11:07 PM HST (4/29) 9:37 AM HST (4/29)
Length of Visible Light 13h 36m
Length of Day
12h 50m
Waning Gibbous, 78% of the Moon is Illuminated
Apr 29
Waning Gibbous
May 2
Last Quarter
May 9
New
May 17
First Quarter
May 24
Full

Hourly Weather History & Observations

Time (HST) Temp. Dew Point Humidity Pressure Visibility Wind Dir Wind Speed Gust Speed Precip Events Conditions
12:19 AM 70.0 °F 66.9 °F 90% 30.03 in 10.0 mi SSW 5.8 mph - 0.00 in   Overcast
12:33 AM 70.0 °F 66.9 °F 90% 30.02 in 7.0 mi SSW 8.1 mph - 0.00 in Rain Light Rain
12:43 AM 70.0 °F 66.9 °F 90% 30.02 in 7.0 mi SSW 9.2 mph - 0.00 in Rain Light Rain
12:53 AM 70.0 °F 66.9 °F 90% 30.02 in 9.0 mi SSW 11.5 mph - 0.00 in Rain Light Rain
1:13 AM 69.1 °F 66.9 °F 93% 30.01 in 7.0 mi SW 6.9 mph - 0.02 in Rain Light Rain
1:22 AM 69.1 °F 66.9 °F 93% 30.01 in 10.0 mi WSW 6.9 mph - 0.02 in   Overcast
1:53 AM 70.0 °F 66.9 °F 90% 30.00 in 10.0 mi SW 5.8 mph - 0.02 in   Overcast
2:53 AM 70.0 °F 66.0 °F 87% 29.99 in 10.0 mi SE 5.8 mph - 0.02 in   Overcast
3:53 AM 70.0 °F 66.9 °F 90% 29.99 in 3.0 mi SE 6.9 mph - 0.08 in Rain Light Rain
4:27 AM 70.0 °F 66.9 °F 90% 29.98 in 10.0 mi SE 8.1 mph - 0.01 in   Overcast
4:53 AM 69.1 °F 66.9 °F 93% 29.98 in 9.0 mi SE 8.1 mph - 0.02 in Rain Light Rain
5:07 AM 70.0 °F 66.9 °F 90% 29.99 in 8.0 mi SSW 5.8 mph - 0.01 in Rain Light Rain
5:39 AM 70.0 °F 66.9 °F 90% 29.99 in 4.0 mi West 3.5 mph - 0.13 in Rain Rain
5:53 AM 70.0 °F 66.9 °F 90% 29.99 in 10.0 mi WSW 6.9 mph - 0.15 in Rain Light Rain
6:53 AM 71.1 °F 66.9 °F 87% 30.00 in 10.0 mi WSW 4.6 mph - 0.01 in   Overcast
7:53 AM 71.1 °F 66.9 °F 87% 30.01 in 10.0 mi SW 8.1 mph - N/A   Overcast
8:33 AM 72.0 °F 66.9 °F 84% 30.02 in 10.0 mi WSW 6.9 mph - 0.01 in   Overcast
8:53 AM 72.0 °F 68.0 °F 87% 30.03 in 5.0 mi SSW 3.5 mph - 0.04 in Rain Light Rain
9:53 AM 72.0 °F 68.0 °F 87% 30.02 in 8.0 mi Calm Calm - 0.03 in Rain Light Rain
10:04 AM 72.0 °F 68.0 °F 87% 30.03 in 7.0 mi SW 4.6 mph - 0.00 in Rain Light Rain
10:14 AM 73.0 °F 68.0 °F 84% 30.03 in 6.0 mi SSW 5.8 mph - 0.00 in   Haze
10:34 AM 73.0 °F 68.0 °F 84% 30.02 in 10.0 mi SSW 3.5 mph - 0.01 in Rain Light Rain
10:53 AM 72.0 °F 69.1 °F 91% 30.02 in 3.0 mi Calm Calm - 0.03 in Rain Light Rain
11:20 AM 73.0 °F 69.1 °F 87% 30.01 in 7.0 mi Calm Calm - 0.01 in Rain Light Rain
11:53 AM 75.0 °F 69.1 °F 82% 30.00 in 10.0 mi NNW 5.8 mph - 0.01 in   Overcast
12:04 PM 73.9 °F 69.1 °F 85% 30.00 in 10.0 mi NW 5.8 mph - N/A   Overcast
12:42 PM 72.0 °F 69.1 °F 91% 29.98 in 5.0 mi Calm Calm - 0.06 in Rain Light Rain
12:53 PM 73.0 °F 69.1 °F 87% 29.98 in 4.0 mi Calm Calm - 0.07 in Rain Light Rain
1:02 PM 73.0 °F 69.1 °F 87% 29.99 in 2.5 mi West 3.5 mph - 0.00 in Rain Rain
1:06 PM 73.0 °F 69.1 °F 87% 29.98 in 3.0 mi Variable 4.6 mph - 0.02 in Rain Heavy Rain
1:53 PM 73.0 °F 70.0 °F 90% 29.96 in 10.0 mi NNW 4.6 mph - 0.07 in   Overcast
2:53 PM 73.9 °F 68.0 °F 82% 29.95 in 7.0 mi Calm Calm - 0.04 in Rain Light Rain
3:53 PM 73.0 °F 69.1 °F 87% 29.94 in 10.0 mi West 8.1 mph - 0.03 in   Overcast
4:53 PM 73.0 °F 69.1 °F 87% 29.94 in 10.0 mi WNW 3.5 mph - 0.00 in   Overcast
5:53 PM 73.9 °F 68.0 °F 82% 29.95 in 10.0 mi Calm Calm - N/A   Overcast
6:53 PM 73.0 °F 69.1 °F 87% 29.97 in 10.0 mi South 3.5 mph - N/A   Overcast
7:53 PM 72.0 °F 69.1 °F 91% 29.99 in 10.0 mi Calm Calm - N/A   Overcast
8:53 PM 71.1 °F 68.0 °F 90% 30.00 in 10.0 mi WSW 3.5 mph - N/A   Mostly Cloudy
9:53 PM 71.1 °F 68.0 °F 90% 30.01 in 10.0 mi Calm Calm - N/A   Overcast
10:53 PM 69.1 °F 66.9 °F 93% 30.01 in 10.0 mi Calm Calm - N/A   Scattered Clouds
11:06 PM 69.1 °F 66.0 °F 90% 30.01 in 10.0 mi Calm Calm - N/A   Mostly Cloudy
11:50 PM 69.8 °F 66.2 °F 88% 30.01 in 10.0 mi West 3.5 mph - N/A   Mostly Cloudy
11:53 PM 69.1 °F 66.0 °F 90% 30.00 in 10.0 mi West 3.5 mph - N/A   Mostly Cloudy